TimeEST,TemperatureF,Dew PointF,Humidity,Sea Level PressureIn,VisibilityMPH,Wind Direction,Wind SpeedMPH,Gust SpeedMPH,PrecipitationIn,Events,Conditions,WindDirDegrees,DateUTC
12:51 AM,19.9,12.9,74,30.58,10.0,Calm,Calm,-,N/A,,Clear,0,2011-12-11 05:51:00
1:51 AM,21.0,12.9,71,30.57,10.0,Calm,Calm,-,N/A,,Clear,0,2011-12-11 06:51:00
2:51 AM,19.0,12.0,74,30.59,10.0,Calm,Calm,-,N/A,,Clear,0,2011-12-11 07:51:00
3:51 AM,19.0,12.0,74,30.60,10.0,Calm,Calm,-,N/A,,Clear,0,2011-12-11 08:51:00
4:51 AM,18.0,12.0,78,30.59,10.0,Calm,Calm,-,N/A,,Clear,0,2011-12-11 09:51:00
5:51 AM,18.0,12.0,78,30.61,10.0,Calm,Calm,-,N/A,,Clear,0,2011-12-11 10:51:00
6:51 AM,17.1,12.0,81,30.63,9.0,Calm,Calm,-,N/A,,Clear,0,2011-12-11 11:51:00
7:51 AM,17.1,10.9,77,30.65,7.0,Calm,Calm,-,N/A,,Clear,0,2011-12-11 12:51:00
8:51 AM,19.9,14.0,78,30.67,8.0,Calm,Calm,-,N/A,,Clear,0,2011-12-11 13:51:00
9:51 AM,25.0,15.1,66,30.68,10.0,Calm,Calm,-,N/A,,Clear,0,2011-12-11 14:51:00
10:51 AM,28.9,12.0,49,30.67,10.0,WSW,5.8,-,N/A,,Clear,250,2011-12-11 15:51:00
11:51 AM,30.9,9.0,40,30.65,10.0,SW,6.9,-,N/A,,Clear,220,2011-12-11 16:51:00
12:51 PM,33.1,9.0,37,30.62,10.0,Variable,4.6,-,N/A,,Clear,0,2011-12-11 17:51:00
1:51 PM,35.1,7.0,31,30.60,10.0,SSW,3.5,-,N/A,,Clear,200,2011-12-11 18:51:00
2:51 PM,37.0,8.1,30,30.57,10.0,SSE,3.5,-,N/A,,Clear,160,2011-12-11 19:51:00
3:51 PM,37.0,6.1,28,30.56,10.0,South,4.6,-,N/A,,Clear,170,2011-12-11 20:51:00
4:51 PM,36.0,9.0,33,30.56,10.0,Calm,Calm,-,N/A,,Clear,0,2011-12-11 21:51:00
5:51 PM,33.1,10.0,38,30.56,10.0,Calm,Calm,-,N/A,,Clear,0,2011-12-11 22:51:00
6:51 PM,32.0,10.0,40,30.57,10.0,Calm,Calm,-,N/A,,Clear,0,2011-12-11 23:51:00
7:51 PM,28.9,12.0,49,30.57,10.0,Calm,Calm,-,N/A,,Clear,0,2011-12-12 00:51:00
8:51 PM,27.0,14.0,58,30.57,10.0,Calm,Calm,-,N/A,,Clear,0,2011-12-12 01:51:00
9:51 PM,25.0,12.9,60,30.56,10.0,Calm,Calm,-,N/A,,Clear,0,2011-12-12 02:51:00
10:51 PM,25.0,14.0,63,30.56,10.0,Calm,Calm,-,N/A,,Clear,0,2011-12-12 03:51:00
11:51 PM,21.9,14.0,72,30.54,10.0,Calm,Calm,-,N/A,,Clear,0,2011-12-12 04:51:00